FW2647 Weather Reports


time (UTC)temp
F
wind
direction
speed
knots
gust
knots
rain 1hr
in
rain 24hr
in
rain mn
in
humidity
%
barometer
mb
20260507123003 59 174 4.3 8.7 0.00 0.06 0.00 56 1016.0
20260507122006 58 149 3.5 7.0 0.00 0.06 0.00 60 1016.2
20260507121005 58 177 5.2 8.7 0.00 0.06 0.00 58 1016.1
20260507120005 61 156 1.7 7.0 0.00 0.06 0.00 60 1016.1
20260507115003 58 118 3.5 7.0 0.00 0.06 0.00 60 1016.0
20260507114005 58 153 3.5 8.7 0.00 0.06 0.00 60 1016.0
20260507113006 58 145 3.5 8.7 0.00 0.06 0.00 57 1016.1
20260507112004 59 60 3.5 7.0 0.00 0.06 0.00 61 1016.0
20260507111005 58 56 3.5 7.0 0.00 0.06 0.00 63 1016.1
20260507110004 57 87 3.5 7.0 0.00 0.06 0.00 62 1016.2
20260507105006 56 70 3.5 7.0 0.00 0.06 0.00 63 1016.3
20260507104005 57 82 2.6 5.2 0.00 0.06 0.00 61 1016.2
20260507103006 58 91 2.6 5.2 0.00 0.06 0.00 61 1016.3
20260507102006 60 81 2.6 5.2 0.00 0.06 0.00 61 1016.2
20260507101005 58 22 2.6 7.0 0.00 0.06 0.00 62 1016.0
20260507100007 57 3 1.7 3.5 0.00 0.06 0.00 67 1016.0
20260507095006 54 61 3.5 5.2 0.00 0.06 0.00 66 1016.0
20260507094004 55 33 3.5 7.0 0.00 0.06 0.00 66 1015.8
20260507093003 56 60 2.6 6.1 0.00 0.06 0.00 65 1015.8
20260507092004 54 140 1.7 3.5 0.00 0.06 0.00 70 1015.9
20260507091216 55 128 1.7 3.5 0.00 0.06 0.00 69 1015.9
20260507090006 54 111 1.7 3.5 0.00 0.06 0.00 72 1015.8
20260507085005 53 43 2.6 3.5 0.00 0.06 0.00 71 1015.7
20260507084005 53 86 1.7 3.5 0.00 0.06 0.00 72 1015.7
20260507083004 53 34 1.7 3.5 0.00 0.06 0.00 72 1015.6
20260507082003 53 77 1.7 3.5 0.00 0.06 0.00 72 1015.7
20260507081006 54 94 1.7 3.5 0.00 0.06 0.00 70 1015.6
20260507080006 54 105 2.6 3.5 0.00 0.06 0.00 71 1015.5
20260507075004 54 88 1.7 3.5 0.00 0.06 0.00 74 1015.5
20260507074003 53 125 1.7 5.2 0.00 0.06 0.00 76 1015.3
20260507073005 51 114 2.6 5.2 0.00 0.06 0.00 74 1015.3
20260507072006 53 47 2.6 5.2 0.00 0.06 0.00 80 1015.2
20260507071005 52 52 1.7 4.3 0.00 0.06 0.00 85 1015.3
20260507070006 51 67 2.6 5.2 0.00 0.06 0.00 91 1015.2
20260507065006 50 66 2.6 4.3 0.00 0.06 0.00 96 1015.3
20260507064004 49 66 1.7 3.5 0.00 0.06 0.00 99 1015.2
20260507063006 47 61 1.7 3.5 0.00 0.06 0.00 99 1015.2
20260507062005 47 81 1.7 3.5 0.00 0.06 0.00 99 1015.2
20260507061218 46 37 0.9 1.7 0.00 0.06 0.00 99 1015.1
20260507060219 44 45 0.0 1.7 0.00 0.06 0.00 99 1015.1
20260507055003 43 45 0.0 1.7 0.00 0.06 0.00 99 1014.9
20260507054003 41 45 0.0 1.7 0.00 0.06 0.00 99 1015.1
20260507053217 40 0 0.0 0.0 0.00 0.06 0.00 99 1014.9
20260507052005 39 315 0.0 0.9 0.00 0.06 0.00 99 1014.8
20260507051213 39 315 0.0 1.7 0.00 0.06 0.00 99 1014.8
20260507050008 39 315 0.9 1.7 0.00 0.06 0.00 99 1014.9
20260507045005 39 315 0.0 1.7 0.00 0.06 0.00 99 1014.7
20260507044005 38 315 0.0 1.7 0.00 0.06 0.00 99 1014.7
20260507043003 39 315 0.9 1.7 0.00 0.06 0.00 99 1014.5
20260507042006 39 315 0.9 1.7 0.00 0.06 0.00 99 1014.4
20260507041006 39 335 0.0 1.7 0.00 0.06 0.00 99 1014.3
20260507040004 39 360 0.0 1.7 0.00 0.06 0.00 99 1014.2
20260507035003 40 360 0.0 1.7 0.00 0.06 0.00 99 1014.1
20260507034007 40 10 0.9 1.7 0.00 0.06 0.00 99 1014.2
20260507033003 40 45 0.0 1.7 0.00 0.06 0.00 99 1014.2
20260507032005 40 45 0.9 1.7 0.00 0.06 0.00 99 1014.3
20260507031004 40 45 0.9 1.7 0.00 0.06 0.00 99 1014.2
20260507030005 40 8 0.9 2.6 0.00 0.06 0.00 99 1014.2
20260507025006 40 18 0.9 2.6 0.00 0.06 0.00 99 1014.3
20260507024218 40 16 0.9 2.6 0.00 0.06 0.00 99 1014.2
20260507023003 40 360 0.0 1.7 0.00 0.06 0.00 99 1014.2
20260507022005 40 14 0.0 1.7 0.00 0.06 0.00 98 1014.2
20260507021006 40 0 0.0 0.9 0.00 0.06 0.00 98 1014.1
20260507020005 40 360 0.0 1.7 0.00 0.06 0.00 98 1014.1
20260507015217 40 1 0.9 1.7 0.00 0.06 0.00 98 1014.1
20260507014003 41 14 0.9 2.6 0.00 0.06 0.00 97 1014.0
20260507013004 41 41 0.9 2.6 0.00 0.06 0.00 97 1013.9
20260507012006 41 41 0.9 2.6 0.00 0.06 0.00 97 1014.0
20260507010217 41 360 0.9 1.7 0.00 0.06 0.00 96 1014.0
20260507005006 42 15 0.9 1.7 0.00 0.06 0.00 96 1014.0
20260507004003 42 9 0.9 1.7 0.00 0.06 0.00 96 1014.0
20260507003220 42 360 0.9 1.7 0.00 0.06 0.00 95 1014.0
20260507002216 42 20 0.9 1.7 0.00 0.06 0.00 95 1014.1
20260507001003 43 8 0.9 1.7 0.00 0.06 0.00 95 1014.1
20260507000004 43 7 0.9 2.6 0.00 0.06 0.00 95 1014.2
20260506235005 44 34 1.7 2.6 0.00 0.06 0.00 95 1014.2
20260506234003 44 45 1.7 3.5 0.00 0.06 0.00 95 1014.2
20260506233005 44 19 1.7 3.5 0.00 0.06 0.00 95 1014.1
20260506232216 44 18 1.7 3.5 0.00 0.06 0.00 95 1014.2
20260506231005 44 22 0.9 3.5 0.00 0.06 0.00 95 1014.1
20260506230005 44 25 1.7 3.5 0.00 0.06 0.00 95 1014.2
20260506225005 44 8 0.9 2.6 0.00 0.06 0.06 94 1014.3
20260506224003 44 360 0.9 1.7 0.00 0.06 0.06 94 1014.2
20260506223216 44 17 1.7 2.6 0.00 0.06 0.06 94 1014.1
20260506222003 45 30 1.7 3.5 0.00 0.06 0.06 93 1014.0
20260506221003 45 38 1.7 3.5 0.00 0.06 0.06 93 1013.9
20260506220003 45 46 2.6 5.2 0.00 0.06 0.06 93 1013.9
20260506215004 46 48 1.7 3.5 0.00 0.06 0.06 89 1013.9
20260506214003 46 45 1.7 3.5 0.00 0.06 0.06 89 1013.9
20260506213006 46 38 1.7 3.5 0.00 0.06 0.06 89 1014.0
20260506212003 46 47 1.7 3.5 0.00 0.06 0.06 89 1013.8
20260506211005 47 45 1.7 3.5 0.00 0.06 0.06 89 1013.9
20260506210005 47 59 1.7 2.6 0.00 0.06 0.06 89 1013.8
20260506205003 47 58 1.7 3.5 0.00 0.06 0.06 89 1013.8
20260506204006 47 68 2.6 4.3 0.00 0.06 0.06 89 1013.8
20260506203003 47 62 3.5 7.0 0.00 0.06 0.06 90 1013.7
20260506202006 47 75 2.6 6.1 0.00 0.06 0.06 90 1013.7
20260506201004 47 45 1.7 3.5 0.00 0.06 0.06 90 1013.7
20260506200005 47 82 0.9 3.5 0.00 0.06 0.06 89 1013.6
20260506195216 47 115 0.9 2.6 0.00 0.06 0.06 89 1013.5
20260506194003 47 97 1.7 3.5 0.00 0.06 0.06 89 1013.2
20260506193213 48 79 1.7 3.5 0.00 0.06 0.06 90 1013.3
20260506192005 48 69 1.7 5.2 0.00 0.06 0.06 90 1013.4
20260506191005 48 90 0.0 1.7 0.00 0.06 0.06 90 1013.1
20260506190006 49 126 0.9 1.7 0.00 0.06 0.06 90 1013.1
20260506185217 49 60 0.9 3.5 0.00 0.06 0.06 91 1012.9
20260506184217 49 62 1.7 3.5 0.00 0.06 0.06 91 1012.9
20260506183003 49 67 2.6 4.3 0.00 0.06 0.06 92 1012.9
20260506182225 49 60 1.7 3.5 0.00 0.06 0.06 92 1012.7
20260506181006 49 77 0.9 3.5 0.00 0.06 0.06 92 1012.6
20260506180216 50 315 0.0 1.7 0.00 0.06 0.06 92 1012.6
20260506175006 50 135 0.0 1.7 0.00 0.06 0.06 92 1012.4
20260506174003 50 302 0.9 2.6 0.00 0.06 0.06 91 1012.4
20260506173214 50 314 0.9 2.6 0.00 0.06 0.06 91 1012.3
20260506172004 50 319 0.9 2.6 0.00 0.06 0.06 90 1012.2
20260506171004 50 4 0.9 2.6 0.00 0.06 0.06 90 1012.2
20260506170005 50 45 0.0 1.7 0.00 0.06 0.06 90 1012.2
20260506165003 50 73 0.0 1.7 0.00 0.06 0.06 90 1012.2
20260506164219 50 331 0.0 1.7 0.00 0.06 0.06 90 1012.2
20260506163003 50 332 0.0 1.7 0.02 0.06 0.06 89 1012.4
20260506162216 51 0 0.0 0.9 0.04 0.06 0.06 89 1012.4
20260506161005 51 70 0.0 1.7 0.04 0.06 0.06 89 1012.2
20260506160005 50 79 0.9 3.5 0.04 0.06 0.06 88 1012.2
20260506155005 50 100 0.9 2.6 0.04 0.06 0.06 87 1012.2
20260506154007 50 172 0.9 3.5 0.02 0.05 0.05 86 1012.2
20260506153220 51 130 1.7 5.2 0.01 0.04 0.04 85 1012.1
20260506152006 51 54 1.7 3.5 0.00 0.02 0.02 84 1012.0
20260506151005 52 85 1.7 3.5 0.00 0.02 0.02 84 1012.0
20260506150004 52 6 1.7 3.5 0.00 0.02 0.02 84 1011.8
20260506145003 53 359 1.7 3.5 0.00 0.02 0.02 85 1011.9
20260506144005 53 19 2.6 3.5 0.01 0.02 0.02 86 1011.9
20260506143003 53 8 2.6 5.2 0.01 0.02 0.02 89 1011.8
20260506142005 53 349 1.7 3.5 0.01 0.02 0.02 90 1012.0
20260506141005 52 14 1.7 7.0 0.01 0.02 0.02 91 1012.1
20260506140005 51 3 1.7 3.5 0.01 0.02 0.02 91 1012.1
20260506135006 50 21 2.6 7.0 0.01 0.02 0.02 90 1012.1
20260506134005 50 7 2.6 6.1 0.00 0.01 0.01 90 1012.1
20260506133217 50 27 3.5 6.1 0.01 0.01 0.01 90 1012.1
20260506132003 50 40 5.2 9.6 0.01 0.01 0.01 89 1012.1
20260506131003 51 25 3.5 7.0 0.01 0.01 0.01 89 1012.0
20260506130004 51 39 4.3 7.0 0.01 0.01 0.01 89 1012.0
20260506125006 51 40 4.3 7.8 0.01 0.01 0.01 88 1011.9
20260506124005 51 41 4.3 7.0 0.01 0.01 0.01 87 1011.8